GW0132 Weather Reports


time (UTC)temp
C
wind
direction
speed
KPH
gust
KPH
rain 1hr
cm
rain 24hr
cm
rain mn
cm
humidity
%
barometer
mb
20260906210905 20 32 1.6 1.6 0.00 0.00 0.00 75 1017.4
20260906210401 20 281 0.0 1.6 0.00 0.00 0.00 74 1017.4
20260906205855 20 279 1.6 1.6 0.00 0.00 0.00 76 1017.4
20260906205351 20 264 1.6 1.6 0.00 0.00 0.00 78 1017.5
20260906204847 20 259 1.6 1.6 0.00 0.00 0.00 77 1017.2
20260906204346 20 21 3.2 4.8 0.00 0.00 0.00 76 1017.3
20260906203845 20 193 3.2 3.2 0.00 0.00 0.00 70 1017.4
20260906203341 20 249 1.6 1.6 0.00 0.00 0.00 75 1017.4
20260906202838 20 101 3.2 3.2 0.00 0.00 0.00 74 1017.4
20260906202332 20 259 0.0 0.0 0.00 0.00 0.00 72 1017.5
20260906201831 20 88 3.2 4.8 0.00 0.00 0.00 71 1017.3
20260906201326 21 3 3.2 3.2 0.00 0.00 0.00 73 1017.3
20260906200822 20 267 1.6 1.6 0.00 0.00 0.00 72 1017.5
20260906200318 21 284 1.6 1.6 0.00 0.00 0.00 75 1017.5
20260906195812 20 284 3.2 3.2 0.00 0.00 0.00 72 1017.4
20260906195309 20 278 0.0 1.6 0.00 0.00 0.00 75 1017.3
20260906194804 21 251 1.6 1.6 0.00 0.00 0.00 74 1017.5
20260906194254 21 10 3.2 4.8 0.00 0.00 0.00 73 1017.4
20260906193748 20 278 1.6 1.6 0.00 0.00 0.00 78 1017.6
20260906193244 21 21 3.2 4.8 0.00 0.00 0.00 71 1017.5
20260906192740 21 335 3.2 3.2 0.00 0.00 0.00 75 1017.4
20260906192240 21 13 4.8 4.8 0.00 0.00 0.00 69 1017.2
20260906191739 21 302 3.2 3.2 0.00 0.00 0.00 72 1017.1
20260906191233 21 265 1.6 1.6 0.00 0.00 0.00 74 1017.3
20260906190728 22 31 3.2 4.8 0.00 0.00 0.00 69 1017.1
20260906190222 21 263 1.6 3.2 0.00 0.00 0.00 71 1017.0
20260906185721 20 123 1.6 1.6 0.00 0.00 0.00 75 1017.3
20260906185221 21 209 4.8 8.0 0.00 0.00 0.00 76 1017.2
20260906184715 21 245 1.6 1.6 0.00 0.00 0.00 74 1017.4
20260906184211 20 65 1.6 3.2 0.00 0.00 0.00 74 1017.3
20260906183707 21 25 1.6 3.2 0.00 0.00 0.00 76 1017.2
20260906183203 21 15 1.6 1.6 0.00 0.00 0.00 74 1017.1
20260906182703 21 22 3.2 3.2 0.00 0.00 0.00 73 1017.3
20260906182158 20 211 3.2 4.8 0.00 0.00 0.00 71 1017.3
20260906181654 21 23 3.2 3.2 0.00 0.00 0.00 71 1017.4
20260906181149 22 323 4.8 8.0 0.00 0.00 0.00 67 1017.2
20260906180644 21 70 3.2 4.8 0.00 0.00 0.00 68 1017.2
20260906180139 21 34 3.2 4.8 0.00 0.00 0.00 69 1017.1
20260906175637 22 256 1.6 1.6 0.00 0.00 0.00 74 1017.4
20260906175132 20 260 1.6 1.6 0.00 0.00 0.00 74 1017.3
20260906174630 21 351 4.8 9.7 0.00 0.00 0.00 69 1017.4
20260906174126 21 313 3.2 3.2 0.00 0.00 0.00 69 1017.3
20260906173621 20 269 1.6 1.6 0.00 0.00 0.00 77 1017.4
20260906173116 20 1 1.6 1.6 0.00 0.00 0.00 74 1017.3
20260906172610 20 33 3.2 4.8 0.00 0.00 0.00 74 1017.8
20260906172106 20 247 4.8 4.8 0.00 0.00 0.00 72 1017.6
20260906171605 20 253 4.8 4.8 0.00 0.00 0.00 77 1017.5
20260906171101 20 321 1.6 1.6 0.00 0.00 0.00 78 1017.5
20260906170556 21 10 3.2 4.8 0.00 0.00 0.00 75 1017.5
20260906170055 20 46 1.6 3.2 0.00 0.00 0.00 76 1017.3
20260906165552 21 276 4.8 4.8 0.00 0.00 0.00 75 1017.3
20260906165047 21 286 3.2 3.2 0.00 0.00 0.00 79 1017.4
20260906164546 21 117 1.6 1.6 0.00 0.00 0.00 72 1017.4
20260906164042 21 124 1.6 3.2 0.00 0.00 0.00 74 1017.5
20260906163537 20 358 4.8 4.8 0.00 0.00 0.00 76 1017.3
20260906163033 22 42 1.6 1.6 0.00 0.00 0.00 73 1017.1
20260906162530 21 247 4.8 8.0 0.00 0.00 0.00 72 1017.4
20260906162025 21 13 1.6 1.6 0.00 0.00 0.00 76 1017.3
20260906161520 21 82 3.2 3.2 0.00 0.00 0.00 77 1017.2
20260906161019 20 281 1.6 3.2 0.00 0.00 0.00 82 1017.2
20260906160518 21 154 1.6 1.6 0.00 0.00 0.00 74 1017.4
20260906160017 21 289 1.6 3.2 0.00 0.00 0.00 73 1017.3
20260906155514 21 279 1.6 1.6 0.00 0.00 0.00 76 1017.1
20260906155011 21 301 1.6 3.2 0.00 0.00 0.00 78 1017.1
20260906154506 21 282 1.6 1.6 0.00 0.00 0.00 79 1017.0
20260906154004 20 63 1.6 1.6 0.00 0.00 0.00 77 1017.2
20260906153503 21 262 3.2 3.2 0.00 0.00 0.00 76 1017.2
20260906152958 21 238 1.6 1.6 0.00 0.00 0.00 76 1017.0
20260906152453 21 272 1.6 3.2 0.00 0.00 0.00 76 1017.0
20260906151953 20 113 4.8 4.8 0.00 0.00 0.00 79 1017.1
20260906151448 21 21 3.2 3.2 0.00 0.00 0.00 82 1016.9
20260906150944 21 313 0.0 0.0 0.00 0.00 0.00 81 1017.0
20260906150439 21 14 1.6 3.2 0.00 0.00 0.00 78 1016.9
20260906145938 20 26 3.2 3.2 0.00 0.00 0.00 83 1017.0
20260906145438 21 267 1.6 1.6 0.00 0.00 0.00 79 1016.8
20260906144932 20 94 3.2 3.2 0.00 0.00 0.00 81 1017.0
20260906144427 21 265 0.0 1.6 0.00 0.00 0.00 83 1016.9
20260906143922 20 268 0.0 1.6 0.00 0.00 0.00 84 1017.1
20260906143418 20 297 1.6 3.2 0.00 0.00 0.00 84 1016.7
20260906142914 20 335 3.2 3.2 0.00 0.00 0.00 83 1016.8
20260906142413 20 118 3.2 3.2 0.00 0.00 0.00 85 1017.1
20260906141908 21 292 0.0 1.6 0.00 0.00 0.00 86 1016.9
20260906141408 20 52 3.2 4.8 0.00 0.00 0.00 87 1016.9
20260906140902 20 266 1.6 1.6 0.00 0.00 0.00 91 1016.8
20260906140356 19 337 3.2 4.8 0.00 0.00 0.00 89 1016.7
20260906135854 19 233 0.0 1.6 0.00 0.00 0.00 91 1016.9
20260906135349 18 342 4.8 4.8 0.00 0.00 0.00 92 1016.6
20260906134844 18 206 0.0 0.0 0.00 0.00 0.00 95 1016.6
20260906134339 18 298 1.6 1.6 0.00 0.00 0.00 95 1016.6
20260906133835 17 266 0.0 0.0 0.00 0.00 0.00 95 1016.5
20260906133330 17 262 1.6 1.6 0.00 0.00 0.00 96 1016.5
20260906132826 17 252 1.6 3.2 0.00 0.00 0.00 97 1016.4
20260906132321 17 274 1.6 3.2 0.00 0.00 0.00 99 1016.4
20260906131816 17 284 1.6 1.6 0.00 0.00 0.00 99 1016.5
20260906131312 17 272 1.6 1.6 0.00 0.00 0.00 99 1016.5
20260906130807 17 237 3.2 3.2 0.00 0.00 0.00 99 1016.4
20260906130307 17 284 0.0 1.6 0.00 0.00 0.00 99 1016.3
20260906125805 17 260 0.0 1.6 0.00 0.00 0.00 99 1016.3
20260906125306 17 285 0.0 0.0 0.00 0.00 0.00 99 1016.5
20260906124758 17 259 0.0 0.0 0.00 0.00 0.00 99 1016.4
20260906124254 17 325 0.0 3.2 0.00 0.00 0.00 99 1016.3
20260906123753 17 324 0.0 1.6 0.00 0.00 0.00 99 1016.3
20260906123248 17 314 0.0 1.6 0.00 0.00 0.00 99 1016.7
20260906122748 15 287 0.0 0.0 0.00 0.00 0.00 99 1016.2
20260906122243 15 258 0.0 0.0 0.00 0.00 0.00 99 1016.1
20260906121739 15 261 0.0 0.0 0.00 0.00 0.00 99 1016.1
20260906121236 14 261 0.0 0.0 0.00 0.00 0.00 99 1016.3
20260906120731 13 258 0.0 0.0 0.00 0.00 0.00 99 1016.1
20260906120228 13 264 0.0 0.0 0.00 0.00 0.00 99 1016.1
20260906115723 13 261 0.0 0.0 0.00 0.00 0.00 99 1015.9
20260906115218 13 259 0.0 0.0 0.00 0.00 0.00 99 1015.8
20260906114717 13 261 0.0 0.0 0.00 0.00 0.00 99 1015.7
20260906114212 13 263 0.0 0.0 0.00 0.00 0.00 99 1015.4
20260906113708 13 261 0.0 0.0 0.00 0.00 0.00 99 1015.8
20260906113207 13 260 0.0 0.0 0.00 0.00 0.00 99 1015.9
20260906112707 13 260 0.0 0.0 0.00 0.00 0.00 99 1015.6
20260906112204 13 262 0.0 0.0 0.00 0.00 0.00 99 1015.7
20260906111703 13 261 0.0 0.0 0.00 0.00 0.00 99 1015.6
20260906111157 13 262 0.0 0.0 0.00 0.00 0.00 99 1015.8
20260906110653 13 262 0.0 0.0 0.00 0.00 0.00 99 1015.7
20260906110148 13 262 0.0 0.0 0.00 0.00 0.00 99 1015.5
20260906105642 13 262 0.0 0.0 0.00 0.00 0.00 99 1015.5
20260906105138 13 262 0.0 0.0 0.00 0.00 0.00 99 1015.4
20260906104637 13 262 0.0 0.0 0.00 0.00 0.00 99 1015.3
20260906104131 13 261 0.0 0.0 0.00 0.00 0.00 99 1015.3
20260906103629 12 262 0.0 0.0 0.00 0.00 0.00 99 1015.4
20260906103125 12 261 0.0 0.0 0.00 0.00 0.00 99 1015.2
20260906102620 12 261 0.0 0.0 0.00 0.00 0.00 99 1015.1
20260906102114 13 261 0.0 0.0 0.00 0.00 0.00 99 1015.1
20260906101609 13 261 0.0 0.0 0.00 0.00 0.00 99 1015.0
20260906101109 13 265 0.0 0.0 0.00 0.00 0.00 99 1015.1
20260906100605 13 262 0.0 0.0 0.00 0.00 0.00 99 1015.0
20260906100105 13 262 0.0 0.0 0.00 0.00 0.00 99 1015.1
20260906095604 13 261 0.0 0.0 0.00 0.00 0.00 99 1014.9
20260906095100 13 263 0.0 0.0 0.00 0.00 0.00 99 1014.9
20260906094559 13 263 0.0 0.0 0.00 0.00 0.00 99 1014.9
20260906094055 13 263 0.0 0.0 0.00 0.00 0.00 99 1014.7
20260906093550 13 262 0.0 0.0 0.00 0.00 0.00 99 1014.7
20260906093045 13 263 0.0 0.0 0.00 0.00 0.00 99 1014.7
20260906092540 13 262 0.0 0.0 0.00 0.00 0.00 99 1014.7
20260906092035 13 260 0.0 0.0 0.00 0.00 0.00 99 1014.6
20260906091531 13 261 0.0 0.0 0.00 0.00 0.00 99 1014.6
20260906091027 13 261 0.0 0.0 0.00 0.00 0.00 99 1014.6
20260906090522 13 261 0.0 0.0 0.00 0.00 0.00 99 1014.4
20260906090017 13 263 0.0 0.0 0.00 0.00 0.00 99 1014.4
20260906085515 13 261 0.0 0.0 0.00 0.00 0.00 99 1014.2
20260906085015 14 261 0.0 0.0 0.00 0.00 0.00 99 1014.2
20260906084510 14 261 0.0 0.0 0.00 0.00 0.00 99 1014.1
20260906084009 14 261 0.0 0.0 0.00 0.00 0.00 99 1014.0
20260906083505 14 263 0.0 0.0 0.00 0.00 0.00 99 1014.1
20260906083004 14 262 0.0 0.0 0.00 0.00 0.00 99 1013.9
20260906082459 15 261 0.0 0.0 0.00 0.00 0.00 99 1014.1
20260906081955 15 262 0.0 0.0 0.00 0.00 0.00 99 1013.9
20260906081450 15 263 0.0 0.0 0.00 0.00 0.00 99 1014.0
20260906080946 15 262 0.0 0.0 0.00 0.00 0.00 99 1013.9
20260906080442 15 261 0.0 0.0 0.00 0.00 0.00 99 1014.1
20260906075937 15 261 0.0 0.0 0.00 0.00 0.00 99 1013.8
20260906075431 15 265 0.0 0.0 0.00 0.00 0.00 99 1014.0
20260906074927 15 262 0.0 0.0 0.00 0.00 0.00 99 1014.0
20260906074421 15 264 0.0 0.0 0.00 0.00 0.00 99 1013.8
20260906073920 15 262 0.0 0.0 0.00 0.00 0.00 99 1013.8
20260906073415 15 261 0.0 0.0 0.00 0.00 0.00 99 1013.9
20260906072911 15 263 0.0 0.0 0.00 0.00 0.00 99 1014.0
20260906072406 15 265 0.0 0.0 0.00 0.00 0.00 99 1013.8
20260906071902 15 262 0.0 0.0 0.00 0.00 0.00 99 1013.7
20260906071357 15 261 0.0 0.0 0.00 0.00 0.00 99 1014.0
20260906070853 15 261 0.0 0.0 0.00 0.00 0.00 99 1014.0
20260906070349 15 261 0.0 0.0 0.00 0.00 0.00 99 1013.9
20260906065844 15 259 0.0 0.0 0.00 0.00 0.00 99 1013.9
20260906065339 15 258 0.0 0.0 0.00 0.00 0.00 99 1013.9
20260906064834 15 261 0.0 0.0 0.00 0.00 0.00 99 1013.8
20260906064330 15 261 0.0 0.0 0.00 0.00 0.00 99 1014.0
20260906063825 15 264 0.0 0.0 0.00 0.00 0.00 99 1014.0
20260906063320 15 260 0.0 0.0 0.00 0.00 0.00 99 1014.0
20260906062815 15 262 0.0 0.0 0.00 0.00 0.00 99 1014.0
20260906062314 15 262 0.0 0.0 0.00 0.00 0.00 99 1014.1
20260906061810 15 266 0.0 0.0 0.00 0.00 0.00 99 1014.1
20260906061306 15 263 0.0 0.0 0.00 0.00 0.00 99 1014.1
20260906060801 15 263 0.0 0.0 0.00 0.00 0.00 99 1014.0
20260906060259 15 262 0.0 0.0 0.00 0.00 0.00 99 1014.0
20260906055754 15 263 0.0 0.0 0.00 0.00 0.00 99 1014.1
20260906055249 15 263 0.0 0.0 0.00 0.00 0.00 99 1013.9
20260906054745 15 263 0.0 0.0 0.00 0.00 0.00 99 1014.1
20260906054240 15 263 0.0 0.0 0.00 0.00 0.00 99 1014.1
20260906053737 15 263 0.0 0.0 0.00 0.00 0.00 99 1014.1
20260906053232 15 262 0.0 0.0 0.00 0.00 0.00 99 1014.2
20260906052727 15 262 0.0 0.0 0.00 0.00 0.00 99 1014.2
20260906052223 15 262 0.0 0.0 0.00 0.00 0.00 99 1014.3
20260906051720 15 261 0.0 0.0 0.00 0.00 0.00 99 1014.1
20260906051219 16 261 0.0 0.0 0.00 0.00 0.00 99 1014.3
20260906050715 16 261 0.0 0.0 0.00 0.00 0.00 99 1013.9
20260906050210 16 265 0.0 0.0 0.00 0.00 0.00 99 1014.0
20260906045708 16 267 0.0 0.0 0.00 0.00 0.00 99 1014.1
20260906045203 16 263 0.0 0.0 0.00 0.00 0.00 99 1014.0
20260906044659 16 263 0.0 0.0 0.00 0.00 0.00 99 1013.9
20260906044154 16 265 0.0 0.0 0.00 0.00 0.00 99 1013.8
20260906043650 16 262 0.0 0.0 0.00 0.00 0.00 99 1014.1
20260906043146 16 260 0.0 0.0 0.00 0.00 0.00 99 1013.8
20260906042645 16 259 0.0 0.0 0.00 0.00 0.00 99 1014.0
20260906042139 16 262 0.0 0.0 0.00 0.00 0.00 99 1013.7
20260906041635 16 262 0.0 0.0 0.00 0.00 0.00 99 1013.9
20260906041130 16 262 0.0 0.0 0.00 0.00 0.00 99 1013.8
20260906040626 16 261 0.0 0.0 0.00 0.00 0.00 99 1014.0
20260906040121 16 261 0.0 0.0 0.00 0.00 0.00 99 1013.8
20260906035616 16 263 0.0 0.0 0.00 0.00 0.00 99 1013.8
20260906035111 16 264 0.0 0.0 0.00 0.00 0.00 99 1013.7
20260906034606 16 262 0.0 0.0 0.00 0.00 0.00 99 1013.9
20260906034101 16 263 0.0 0.0 0.00 0.00 0.00 99 1013.6
20260906033556 16 266 0.0 0.0 0.00 0.00 0.00 99 1013.6
20260906033051 16 264 0.0 0.0 0.00 0.00 0.00 99 1013.7
20260906032548 16 261 0.0 0.0 0.00 0.00 0.00 99 1013.6
20260906032048 16 260 0.0 0.0 0.00 0.00 0.00 99 1013.7
20260906031543 16 258 0.0 0.0 0.00 0.00 0.00 99 1013.8
20260906031039 15 262 0.0 0.0 0.00 0.00 0.00 99 1013.8
20260906030538 15 262 0.0 0.0 0.00 0.00 0.00 99 1013.5
20260906030037 15 263 0.0 0.0 0.00 0.00 0.00 99 1013.7
20260906025532 15 262 0.0 0.0 0.00 0.00 0.00 99 1013.4
20260906025030 15 262 0.0 0.0 0.00 0.00 0.00 99 1013.6
20260906024525 15 261 0.0 0.0 0.00 0.00 0.00 99 1013.6
20260906024020 15 261 0.0 0.0 0.00 0.00 0.00 99 1013.6
20260906023516 15 261 0.0 0.0 0.00 0.00 0.00 99 1013.6
20260906023011 15 261 0.0 0.0 0.00 0.00 0.00 99 1013.3
20260906022506 15 261 0.0 0.0 0.00 0.00 0.00 99 1013.4
20260906022001 15 261 0.0 0.0 0.00 0.00 0.00 99 1013.4
20260906021456 15 261 0.0 0.0 0.00 0.00 0.00 99 1013.3
20260906020951 15 270 0.0 0.0 0.00 0.00 0.00 99 1013.3
20260906020444 16 261 0.0 0.0 0.00 0.00 0.00 99 1013.4
20260906015938 16 260 0.0 0.0 0.00 0.00 0.00 99 1013.3
20260906015433 16 263 0.0 0.0 0.00 0.00 0.00 99 1013.3
20260906014933 16 261 0.0 0.0 0.00 0.00 0.00 99 1013.2
20260906014432 16 260 0.0 0.0 0.00 0.00 0.00 99 1013.2
20260906013929 16 263 0.0 0.0 0.00 0.00 0.00 99 1013.3
20260906013424 16 262 0.0 0.0 0.00 0.00 0.00 99 1013.4
20260906012920 16 263 0.0 0.0 0.00 0.00 0.00 99 1013.4
20260906012420 16 262 0.0 0.0 0.00 0.00 0.00 98 1013.1
20260906011919 16 262 0.0 0.0 0.00 0.00 0.00 98 1013.2
20260906011414 16 266 0.0 0.0 0.00 0.00 0.00 98 1013.4
20260906010910 16 261 0.0 0.0 0.00 0.00 0.00 98 1013.3
20260906010405 16 265 0.0 0.0 0.00 0.00 0.00 98 1013.2
20260906005901 16 260 0.0 0.0 0.00 0.00 0.00 98 1013.2
20260906005400 16 267 0.0 0.0 0.00 0.00 0.00 98 1013.3
20260906004859 16 261 0.0 0.0 0.00 0.00 0.00 98 1013.2
20260906004353 16 265 0.0 0.0 0.00 0.00 0.00 97 1013.1
20260906003849 16 262 0.0 0.0 0.00 0.00 0.00 97 1013.0
20260906003344 16 261 0.0 0.0 0.00 0.00 0.00 97 1013.0
20260906002840 17 261 0.0 0.0 0.00 0.00 0.00 97 1013.0
20260906002339 17 261 0.0 0.0 0.00 0.00 0.00 97 1013.2
20260906001835 17 261 0.0 0.0 0.00 0.00 0.00 97 1012.9
20260906001330 17 261 0.0 0.0 0.00 0.00 0.00 96 1013.0
20260906000825 17 261 0.0 0.0 0.00 0.00 0.00 96 1012.9
20260906000320 17 262 0.0 0.0 0.00 0.00 0.00 96 1013.0
20260905235819 17 261 0.0 0.0 0.00 0.00 0.00 95 1013.2
20260905235314 17 261 0.0 0.0 0.00 0.00 0.00 95 1013.2
20260905234810 17 261 0.0 0.0 0.00 0.00 0.00 94 1013.3
20260905234305 17 262 0.0 0.0 0.00 0.00 0.00 94 1013.2
20260905233759 18 260 0.0 0.0 0.00 0.00 0.00 93 1013.0
20260905233254 18 258 0.0 0.0 0.00 0.00 0.00 93 1013.2
20260905232753 18 259 0.0 0.0 0.00 0.00 0.00 92 1013.0
20260905232249 18 261 0.0 0.0 0.00 0.00 0.00 91 1013.1
20260905231745 18 260 0.0 0.0 0.00 0.00 0.00 89 1013.0
20260905231240 19 254 0.0 0.0 0.00 0.00 0.00 89 1013.3
20260905230737 19 257 0.0 0.0 0.00 0.00 0.00 88 1013.3
20260905230234 20 276 0.0 0.0 0.00 0.00 0.00 87 1013.0
20260905225734 20 261 0.0 0.0 0.00 0.00 0.00 86 1013.0
20260905225229 20 261 0.0 0.0 0.00 0.00 0.00 85 1013.0
20260905224728 20 318 1.6 1.6 0.00 0.00 0.00 85 1013.4
20260905224224 20 258 1.6 1.6 0.00 0.00 0.00 84 1013.1
20260905223720 20 278 0.0 0.0 0.00 0.00 0.00 83 1013.2
20260905223217 20 263 0.0 0.0 0.00 0.00 0.00 82 1013.2
20260905222712 21 263 1.6 1.6 0.00 0.00 0.00 82 1013.1
20260905222211 21 258 0.0 1.6 0.00 0.00 0.00 81 1013.0
20260905221707 21 319 3.2 3.2 0.00 0.00 0.00 79 1013.1
20260905221204 21 334 1.6 3.2 0.00 0.00 0.00 81 1013.0
20260905220659 21 313 0.0 3.2 0.00 0.00 0.00 79 1012.8
20260905220155 21 312 1.6 1.6 0.00 0.00 0.00 77 1012.7
20260905215654 21 322 1.6 1.6 0.00 0.00 0.00 79 1012.6
20260905215150 21 284 1.6 1.6 0.00 0.00 0.00 79 1012.7
20260905214646 22 314 1.6 1.6 0.00 0.00 0.00 77 1012.7
20260905214141 22 267 1.6 1.6 0.00 0.00 0.00 77 1012.5
20260905213636 22 283 1.6 1.6 0.00 0.00 0.00 75 1012.6
20260905213132 22 272 1.6 1.6 0.00 0.00 0.00 74 1012.5
20260905212627 22 74 1.6 1.6 0.00 0.00 0.00 73 1012.6
20260905212126 22 260 1.6 1.6 0.00 0.00 0.00 73 1012.6
20260905211621 22 330 1.6 3.2 0.00 0.00 0.00 71 1012.4